CAPE
741 1146 1123 914 881 876 839 1023 1106 1149 1537 1957 2177 2141 2068 1963 1897 1969 1897 1708 1699 1835 2009 1937 2152 2162 1188 1585 2196 2621 2709 2473 1427 1070 1423 1407 1866 1984 1541 1388 702 634 33
929 1184 1089 1122 1112 1060 1196 1252 1353 1415 1599 1687 1794 1891 1783 1729 1787 1877 1831 1634 1979 1971 1948 2086 1845 1996 1879 1827 1653 1869 2229 2284 2136 1965 2414 1101 1671 1710 1492 690 581 93 79
1303 882 1209 1229 1201 1172 1311 1458 1565 1714 1845 1814 1975 2045 1998 2109 2137 2129 2112 2047 2100 2046 1959 1969 1899 1828 1963 1433 1890 1686 2196 2404 2607 1744 1648 1277 2139 1418 502 90 12 9 12
1021 749 1397 1326 1336 1356 1410 1499 1532 1741 1828 1882 1925 2096 2202 1994 1688 1553 1561 1783 1936 1843 1890 1954 1876 1871 1936 2320 2170 2137 2659 2427 2220 1858 864 1407 2356 1807 897 99 11 18 19
1527 1418 1354 1583 1614 1757 1745 1886 1969 1965 2035 2077 2049 1910 1606 1253 693 599 743 887 1221 1356 1401 1626 1746 1677 1295 1494 2005 2233 2248 2254 2292 1405 1709 1536 1679 1301 801 98 10 11 13
1982 1669 1794 2128 1870 1515 1301 2013 2188 2433 2465 2213 1765 1278 967 589 102 0 26 199 307 593 748 982 1215 986 816 374 232 466 1427 2509 2403 1445 979 1275 1508 2025 2189 311 5 12 8
2326 2120 2268 2344 2313 2393 2263 2259 2307 1714 1375 1358 959 419 233 117 0 0 0 3 103 334 355 285 284 260 639 1263 632 0 18 161 534 2355 1921 1787 1901 2002 2850 1042 68 45 57
2220 2343 2596 2480 1254 810 968 574 63 9 3 0 0 0 0 0 0 0 0 0 0 3 74 548 524 547 732 1074 1669 1620 1614 1424 786 776 1358 1758 1885 3022 3123 2665 1170 432 51
1553 1644 1593 914 243 32 1 0 0 0 0 0 0 0 0 0 0 0 0 0 0 0 1 4 122 648 518 505 1123 1249 1517 1803 784 842 604 170 148 736 1773 1681 832 5 10
444 392 190 11 0 0 0 0 0 0 0 0 0 0 0 0 0 0 0 0 1 2 1 0 0 0 2 158 358 1110 1813 1204 1411 1436 559 16 1 8 6 1041 570 79 5
4 4 3 0 0 0 0 0 0 0 0 0 0 0 0 0 0 0 0 7 5 4 3 4 1 0 1 0 10 976 1333 1571 1248 1216 735 65 12 9 6 3 15 19 1
2 4 6 0 0 0 0 0 0 0 0 0 0 0 0 2 0 0 0 0 3 7 8 7 8 2 0 0 1 0 43 64 703 221 12 5 3 4 6 3 2 2 2
0 3 9 0 0 0 0 0 0 0 0 0 0 3 1 2 6 0 0 0 2 6 8 5 1 2 0 0 0 0 1 3 3 6 9 3 3 2 3 4 5 3 2
1 5 8 0 0 0 0 0 0 0 0 0 3 1 2 4 5 6 3 3 2 4 6 10 6 3 3 6 14 1 2 4 2 4 8 9 11 10 6 5 7 4 1
1 0 0 0 0 0 0 0 0 1 0 0 1 5 11 4 3 0 0 1 1 1 6 6 5 3 7 12 17 3 3 2 1 2 3 6 9 7 7 6 4 2 0
0 0 0 0 0 0 0 0 0 0 0 0 0 0 0 0 0 0 0 0 0 1 2 4 7 7 9 21 5 1 4 4 3 5 3 4 3 4 7 11 2 1 0
0 0 0 0 0 0 0 0 0 0 0 0 0 0 0 0 0 0 0 0 0 1 4 2 2 2 3 2 2 2 3 5 6 5 5 7 5 5 1 0 0 0 0
0 0 0 0 0 0 0 0 0 0 0 0 0 0 0 0 0 0 0 3 7 3 5 3 3 2 3 3 4 3 5 4 6 7 4 7 5 2 3 4 1 0 0
0 0 0 0 0 0 0 0 0 0 0 0 0 0 0 0 0 0 0 8 6 14 18 9 3 2 3 3 3 10 12 6 7 5 6 5 1 0 0 0 0 0 0
0 0 0 0 0 0 0 0 0 0 0 0 0 0 0 0 0 0 3 2 5 9 9 13 11 7 3 2 4 1 1 0 0 1 0 0 0 0 0 0 0 0 6
0 0 0 0 0 0 0 0 0 0 0 0 0 0 0 0 0 0 0 0 0 4 9 8 20 4 1 0 0 0 0 0 0 0 0 0 3 3 0 0 0 0 0
0 0 0 0 0 0 0 0 0 0 0 0 0 0 0 0 0 0 0 0 0 0 0 0 0 1 4 1 0 0 0 0 0 0 0 0 0 0 0 0 0 0 0
0 0 0 0 0 0 0 0 0 0 0 0 0 0 0 0 0 0 0 0 0 0 0 0 0 0 0 0 0 0 0 0 0 0 0 0 0 0 0 0 0 0 0
0 0 0 0 0 0 0 0 0 0 0 0 0 0 0 0 0 0 0 0 0 0 0 0 0 0 0 0 0 0 0 0 0 0 0 0 0 0 0 0 0 0 0
0 0 0 0 0 0 1 0 0 0 0 0 0 0 0 0 0 0 0 0 0 0 0 0 0 0 0 0 0 0 0 0 0 0 0 0 0 0 0 0 0 0 0
7 2 14 1 0 7 9 4 0 0 0 0 0 0 0 0 0 0 0 0 0 0 0 0 0 0 0 0 0 0 0 0 0 0 0 0 0 0 0 0 0 0 0
CIN
-204 -166 -131 -119 -102 -88 -70 -60 -60 -54 -49 -32 -29 -31 -32 -36 -38 -30 -30 -26 -21 -18 -15 -7 -7 -9 0 0 -1 0 0 -1 0 0 0 -5 -17 -11 -11 -17 -54 -45 -67
-211 -199 -180 -140 -100 -72 -68 -63 -66 -58 -46 -46 -33 -34 -39 -37 -32 -29 -24 -17 -14 -14 -12 -12 -6 -3 -3 -3 0 -1 0 0 0 0 0 0 -1 -1 -3 -42 -36 -111 -104
-228 -271 -184 -161 -144 -99 -78 -67 -52 -41 -36 -39 -28 -26 -35 -24 -20 -18 -16 -10 -6 -6 -9 -8 -10 -11 -2 -1 -1 0 0 0 0 0 0 0 -2 0 -47 -100 -33 0 0
-288 -284 -216 -184 -155 -129 -91 -91 -75 -45 -38 -33 -31 -20 -17 -20 -36 -34 -26 -15 -5 -4 -5 -8 -9 -10 -7 -5 -3 0 0 -1 0 0 0 0 0 0 -12 -113 0 0 0
-222 -171 -207 -155 -159 -130 -125 -82 -55 -42 -30 -30 -20 -16 -27 -38 -58 -48 -33 -20 -17 -11 -10 -3 -2 -17 -40 -37 -5 0 -1 0 0 0 0 0 0 0 -16 -121 -28 0 0
-157 -148 -127 -109 -109 -139 -198 -94 -34 -15 -10 -15 -26 -38 -52 -77 -164 0 -146 -71 -42 -5 -20 -19 -7 -33 -66 -148 -181 -110 -28 0 0 0 0 0 0 0 0 -57 0 0 0
-90 -89 -51 -49 -20 -23 -59 -42 -21 -48 -74 -63 -80 -138 -151 -107 0 0 0 0 -64 -24 -38 -67 -62 -70 -47 -17 -113 0 -56 -198 -99 -4 0 0 0 0 0 -4 -145 -136 -83
-47 -39 -18 -18 -122 -170 -156 -175 -124 -163 -183 0 0 0 0 0 0 0 0 0 0 0 -36 -29 -30 -32 -18 -4 0 0 -3 -28 -89 -60 -10 -1 0 0 0 0 -5 -9 -19
-127 -84 -128 -175 -291 -363 0 0 0 0 0 0 0 0 0 0 0 0 0 0 0 0 0 0 -48 -34 -45 -37 0 0 0 0 -49 -70 -86 -153 -13 -71 -10 0 -2 -31 0
-260 -281 -396 -502 0 0 0 0 0 0 0 0 0 0 0 0 0 0 0 0 0 0 0 0 0 0 0 -70 -21 0 0 -3 0 -3 -65 -11 -8 -27 -35 -8 -7 -80 0
0 0 0 0 0 0 0 0 0 0 0 0 0 0 0 0 0 0 0 0 0 0 0 0 0 0 -4 0 -15 0 0 -2 -6 -3 -20 -106 0 0 0 0 -72 -22 0
0 0 0 0 0 0 0 0 0 0 0 0 0 0 0 0 0 0 0 0 0 0 0 0 0 -3 0 0 0 0 -24 -46 -7 -52 -59 0 0 0 0 0 0 0 0
0 0 0 0 0 0 0 0 0 0 0 0 0 0 0 0 0 0 -1 0 0 0 0 0 0 -1 0 0 0 0 0 0 0 0 0 0 0 0 0 0 0 0 0
0 0 0 0 0 0 0 0 0 0 0 0 0 0 0 0 0 0 0 0 0 0 0 0 0 0 0 -1 -3 0 0 0 0 0 0 0 0 0 0 0 0 0 0
0 0 0 0 0 0 0 0 0 0 0 0 0 0 0 0 0 0 0 0 0 0 0 0 0 0 0 0 -1 0 0 0 0 0 0 0 0 0 0 0 0 -1 -1
0 0 0 0 0 0 0 0 0 0 0 0 0 0 0 0 0 0 0 0 0 0 0 0 0 0 0 0 -1 0 0 0 0 0 0 0 0 0 0 0 -2 -2 -1
0 0 0 0 0 0 0 0 0 0 0 0 0 0 0 0 0 0 0 0 0 0 0 0 0 0 0 0 0 0 0 0 0 0 0 0 0 0 -1 -1 0 0 0
0 0 0 0 0 0 0 0 0 0 0 0 0 0 0 0 0 0 0 0 0 0 0 0 0 0 0 0 0 0 0 0 0 0 -1 -1 -1 -1 0 0 0 0 0
0 0 0 0 0 0 0 0 0 0 0 0 0 0 0 0 0 0 0 0 -1 0 0 0 0 0 0 0 0 0 0 0 0 0 -1 -1 -1 0 0 0 0 0 0
0 0 0 0 0 0 0 0 0 0 0 0 0 0 0 0 0 0 0 0 0 0 0 0 0 0 0 0 0 0 -1 -1 0 -1 0 0 0 0 0 0 0 0 0
0 0 0 0 0 0 0 0 0 0 0 0 0 0 0 0 0 0 0 0 0 0 0 0 0 0 0 0 0 0 0 0 0 0 0 0 0 0 0 0 0 0 0
0 0 0 0 0 0 0 0 0 0 0 0 0 0 0 0 0 0 0 0 0 0 0 0 0 0 0 0 0 0 0 0 0 0 0 0 0 0 0 0 0 0 0
0 0 0 0 0 0 0 0 0 0 0 0 0 0 0 0 0 0 0 0 0 0 0 0 0 0 0 0 0 0 0 0 0 0 0 0 0 0 0 0 0 0 0
0 0 0 0 0 0 0 0 0 0 0 0 0 0 0 0 0 0 0 0 0 0 0 0 0 0 0 0 0 0 0 0 0 0 0 0 0 0 0 0 0 0 0
0 0 -11 0 0 0 -17 0 0 0 0 0 0 0 0 0 0 0 0 0 0 0 0 0 0 0 0 0 0 0 0 0 0 0 0 0 0 0 0 0 0 0 0
-19 -52 -58 0 -13 -31 -12 -3 0 0 0 0 0 0 0 0 0 0 0 0 0 0 0 0 0 0 0 0 0 0 0 0 0 0 0 0 0 0 0 0 0 0 0
Wind_Speed
17 16 15 14 15 14 13 13 12 11 10 9 9 8 9 9 9 9 10 9 10 10 10 11 11 10 8 7 6 6 6 6 8 7 4 3 4 5 3 2 5 5 5
15 15 15 13 13 14 14 13 12 11 11 10 10 10 10 10 9 10 10 10 10 10 11 10 12 8 10 9 7 9 7 7 6 11 7 7 5 2 3 4 4 4 6
15 15 15 15 14 13 13 12 11 11 12 12 11 11 10 11 11 11 10 10 11 12 11 11 12 12 11 10 9 9 7 6 6 7 8 7 3 3 3 3 4 4 4
17 14 12 15 13 10 9 10 11 11 13 13 13 13 12 11 9 8 9 10 11 11 12 11 12 13 12 11 10 10 8 7 7 7 9 7 6 4 4 3 3 1 5
17 15 14 11 11 11 10 10 11 12 12 12 10 10 10 9 8 10 10 11 11 11 11 12 13 14 13 13 9 9 10 9 8 9 8 8 8 4 6 4 4 5 3
15 15 10 10 12 11 7 10 8 11 10 8 8 8 8 7 6 6 10 10 12 13 13 14 13 13 14 16 16 16 13 11 12 10 10 11 12 9 7 5 6 4 4
13 13 13 13 13 11 10 8 8 8 5 4 3 3 5 4 11 10 10 9 12 14 15 13 13 12 13 15 15 17 17 16 17 12 13 13 12 11 9 9 10 8 6
11 11 13 13 10 8 9 9 7 4 4 3 2 3 4 2 8 8 11 10 11 13 13 16 17 16 16 15 15 15 14 14 15 14 17 15 14 10 11 11 12 8 4
14 14 13 13 13 10 9 7 6 4 5 4 4 5 5 4 3 6 9 9 11 14 14 15 15 14 15 13 17 17 16 14 11 14 12 4 6 6 8 6 6 8 3
8 10 11 11 11 9 9 7 5 7 6 4 3 3 3 7 5 7 9 7 10 10 13 15 17 19 14 12 14 15 14 12 12 9 6 5 4 4 9 9 8 8 5
10 6 6 14 11 10 10 7 6 6 5 3 3 5 6 7 9 7 9 9 9 10 11 11 12 11 14 16 16 13 14 11 9 7 4 4 4 4 2 2 2 7 6
12 7 5 11 8 8 10 8 7 4 5 6 8 7 6 8 7 10 14 15 17 11 12 11 12 11 9 9 11 16 11 6 4 5 5 6 6 4 2 5 6 6 6
13 8 6 7 8 7 8 8 5 5 6 7 7 7 8 9 9 13 14 17 20 13 10 14 16 12 12 12 12 13 10 7 6 7 7 4 4 6 11 11 9 12 12
14 9 7 9 9 7 6 4 5 5 6 6 6 8 9 10 11 10 9 10 14 11 11 11 12 14 13 11 6 5 6 7 7 7 7 7 7 7 7 5 9 8 9
14 11 10 8 9 8 6 6 6 5 4 5 6 6 9 9 10 14 12 10 9 7 6 5 6 6 6 6 6 5 7 8 9 8 9 8 7 7 7 6 6 6 9
14 12 10 9 9 8 8 7 2 1 6 7 8 5 7 6 15 16 15 15 15 3 2 3 2 4 4 4 5 5 8 10 9 10 9 9 9 9 9 7 7 8 10
14 14 10 10 9 9 8 7 7 5 7 4 5 7 8 8 14 15 15 14 15 10 7 7 6 6 5 5 5 8 8 7 11 10 10 10 9 9 10 8 7 8 6
12 9 9 9 9 8 8 6 5 6 6 6 7 8 10 11 11 14 14 11 11 11 9 9 8 7 7 7 7 9 9 9 9 10 11 10 9 9 8 7 5 4 6
12 10 9 8 8 8 7 6 5 5 5 5 5 6 8 8 8 11 11 10 10 10 9 9 9 9 9 9 9 9 9 9 9 10 10 9 8 7 6 5 4 6 10
11 10 8 8 8 8 7 6 5 4 3 4 4 6 6 6 9 10 11 12 12 10 10 9 9 8 8 7 8 9 9 9 9 9 10 8 6 7 8 7 8 9 7
10 10 8 8 7 7 6 5 5 4 3 2 2 4 5 5 5 7 8 8 9 9 10 10 9 10 8 7 7 9 9 8 9 11 10 10 9 8 8 7 7 5 6
10 10 9 8 7 7 6 5 4 4 3 3 2 3 1 3 3 4 5 5 6 6 6 7 7 7 7 8 8 9 9 9 8 8 7 6 6 6 7 7 7 7 8
8 11 9 8 7 7 7 5 5 4 4 4 3 3 3 1 1 0 1 2 2 3 4 3 3 4 4 3 3 4 5 5 5 5 6 6 6 6 7 7 8 8 9
8 9 9 8 7 6 6 6 6 5 4 5 4 3 2 3 3 3 3 3 2 2 1 0 0 1 3 3 3 4 4 4 5 6 8 6 6 5 6 7 8 9 8
9 8 8 8 8 8 6 7 6 6 7 6 5 4 5 5 5 5 5 5 4 4 4 3 3 4 4 4 5 6 6 3 5 2 6 6 7 8 7 7 8 8 9
10 11 9 7 8 8 7 7 8 8 7 6 6 6 7 7 7 6 6 6 6 6 6 5 5 5 6 5 5 4 4 1 3 5 4 6 7 7 7 8 12 9 10
Wind_Direction
201 203 206 203 207 215 221 223 220 225 223 229 228 225 228 227 224 225 237 253 248 253 258 245 241 235 246 243 233 243 236 233 251 259 269 280 252 240 186 173 158 136 131
196 200 208 207 208 215 222 222 222 223 225 227 226 224 230 236 240 240 245 254 244 248 253 255 248 249 241 241 244 242 237 227 246 267 274 273 268 243 190 184 164 140 158
189 196 202 207 204 216 224 227 227 230 230 226 227 229 228 232 235 241 249 255 254 252 254 252 249 248 245 249 240 248 241 233 230 255 270 267 266 178 150 111 130 141 127
191 203 199 204 206 206 228 231 229 230 236 232 230 234 237 236 229 242 251 255 259 258 256 252 251 248 245 249 243 244 249 248 246 244 261 258 240 179 177 154 157 156 148
194 200 201 192 192 189 207 224 232 231 237 236 238 239 242 240 242 252 251 250 250 257 257 256 248 246 244 240 241 244 233 244 247 249 255 249 243 193 207 158 167 159 156
191 204 184 183 199 219 189 219 221 233 236 234 232 238 242 258 302 257 259 265 265 261 261 257 255 250 242 238 231 236 239 234 240 239 247 244 251 235 212 172 144 158 183
188 182 174 175 200 208 209 202 204 200 198 206 223 267 278 304 37 14 344 290 272 259 256 257 255 254 242 252 235 233 237 231 235 246 246 245 245 233 220 184 183 189 192
176 184 171 169 161 165 162 164 148 138 110 93 67 8 324 323 39 333 312 279 263 262 262 259 253 257 254 252 250 248 237 232 226 232 240 249 247 239 217 210 207 186 105
161 180 161 159 148 163 141 117 101 125 93 61 35 0 342 336 50 323 312 292 275 271 265 261 260 253 247 226 246 252 251 243 205 214 246 348 349 221 214 196 172 166 150
152 155 138 138 132 130 110 105 120 89 77 58 10 344 336 339 356 302 312 313 297 285 279 268 253 255 258 223 229 235 244 242 236 229 227 221 226 232 235 203 182 193 145
52 29 116 113 116 108 103 100 89 88 90 69 21 11 357 337 323 321 290 307 289 287 278 275 269 248 237 227 222 244 244 259 241 230 202 136 97 78 73 40 147 175 168
85 53 6 79 96 104 103 91 78 91 69 42 21 4 355 343 342 319 300 283 287 274 266 264 262 266 282 248 234 234 234 207 182 167 138 145 139 99 64 41 80 66 44
101 108 221 115 108 115 116 106 117 87 58 43 25 352 342 338 329 319 303 303 295 280 262 255 261 250 239 261 247 234 193 196 169 159 156 155 144 127 133 123 91 90 74
127 162 173 151 126 113 107 122 90 74 61 41 16 355 342 337 334 330 321 312 304 289 270 258 247 244 247 260 253 207 180 167 159 145 121 111 115 126 113 109 115 104 96
143 157 157 136 134 134 113 93 95 79 48 50 14 345 345 336 336 320 308 312 306 273 278 275 246 218 215 220 215 181 139 125 118 122 123 124 122 110 96 106 105 99 104
149 157 157 149 150 136 122 125 262 258 207 232 258 269 345 313 328 330 323 324 330 292 198 278 244 211 182 159 124 117 118 118 125 125 121 121 116 115 119 108 104 111 121
156 154 157 154 145 138 139 139 127 166 227 257 7 8 0 313 351 346 349 339 14 17 43 33 34 43 54 91 110 110 108 116 118 117 117 118 117 116 124 122 124 132 128
154 143 156 149 151 144 139 126 108 93 72 55 47 17 11 344 4 1 2 12 31 33 40 40 39 42 58 70 75 94 101 104 109 111 113 115 121 129 131 133 132 127 123
155 163 163 157 153 137 136 136 124 105 83 61 43 46 22 346 20 23 14 38 39 37 42 46 51 54 52 69 75 78 91 100 109 113 116 122 129 134 130 134 131 159 158
161 157 165 156 152 154 158 156 141 110 88 69 51 35 10 20 31 39 38 48 46 42 49 55 51 46 57 66 83 101 107 102 109 119 126 131 127 138 142 163 164 161 158
159 162 168 163 168 169 169 158 140 133 135 102 73 68 337 352 34 41 48 50 46 54 59 62 69 82 77 66 80 97 94 98 116 127 136 144 153 157 156 156 162 142 130
162 164 178 179 169 178 182 175 166 170 161 180 160 119 219 273 29 55 59 61 61 58 64 61 72 79 88 100 105 117 121 122 131 138 148 154 168 178 166 150 134 133 139
169 171 181 183 184 174 184 189 192 193 195 197 184 198 212 290 281 236 96 91 70 58 61 60 90 108 119 139 143 152 156 162 169 167 165 176 182 176 167 157 156 158 160
165 190 184 190 191 189 198 192 198 208 213 195 200 208 225 232 232 210 224 197 188 175 177 212 263 133 151 189 183 199 195 180 174 179 188 176 164 163 167 165 167 159 153
173 175 179 190 190 203 198 214 203 206 207 215 213 215 225 229 229 222 216 211 207 213 206 210 215 206 213 219 219 202 104 140 234 155 192 187 182 175 171 166 156 154 154
184 188 190 182 199 209 209 209 210 212 218 221 225 227 227 226 226 225 216 215 215 217 225 218 219 219 207 209 212 110 110 192 201 282 221 197 183 179 171 165 168 163 164